Waarnemingen

Advertentie
Mijn weer
Solenzara, Frankrijk (7765): temperatuur & dauwpunt: 18.01.2018 09:00:00 - 24.01.2018 09:00:00 (CET)Solenzara, Frankrijk (7765): temperatuur 5cm: 18.01.2018 09:00:00 - 24.01.2018 09:00:00 (CET)Solenzara, Frankrijk (7765): temperatuur -20cm: 18.01.2018 09:00:00 - 24.01.2018 09:00:00 (CET)Solenzara, Frankrijk (7765): windsnelheid & windstoten: 18.01.2018 09:00:00 - 24.01.2018 09:00:00 (CET)Solenzara, Frankrijk (7765): windrichting: 18.01.2018 09:00:00 - 24.01.2018 09:00:00 (CET)Solenzara, Frankrijk (7765): luchtdruk: 18.01.2018 09:00:00 - 24.01.2018 09:00:00 (CET)Solenzara, Frankrijk (7765): zicht: 18.01.2018 09:00:00 - 24.01.2018 09:00:00 (CET)Solenzara, Frankrijk (7765): Zonneschijnduur: 18.01.2018 09:00:00 - 24.01.2018 09:00:00 (CET)Solenzara, Frankrijk (7765): neerslag: 18.01.2018 09:00:00 - 24.01.2018 09:00:00 (CET)
Datum & Tijd tt [°C] td [°C] tt 5cm [°C] tt -20cm [°C] ff [km/u] ff [kn] fx [km/u] fx [kn] dd ppp [hPa] vv [km] sd [min] rr [mm]
24.01.2018 09:00:00 - - - - - - - - - - - - -
24.01.2018 08:00:00 8,9 5,6 7,4 12,0 10 6 19 10 W 1029,6 60 0 0,0
24.01.2018 07:00:00 8,8 5,9 7,3 12,1 11 6 20 11 W 1029,1 60 0 0,0
24.01.2018 06:00:00 9,0 5,7 7,3 12,2 10 5 20 11 W 1028,4 60 0 0,0
24.01.2018 05:00:00 9,0 6,1 7,5 12,3 11 6 19 11 W 1028,1 60 0 0,0
24.01.2018 04:00:00 9,1 6,2 7,5 12,4 11 6 18 10 W 1028,0 60 0 0,0
24.01.2018 03:00:00 9,0 6,8 7,5 12,5 9 5 16 9 W 1028,0 60 0 0,0
24.01.2018 02:00:00 9,1 6,2 6,7 12,6 11 6 16 9 W 1027,7 60 0 0,0
24.01.2018 01:00:00 9,3 6,6 7,8 12,6 10 6 18 10 WNW 1027,3 60 0 0,0
24.01.2018 00:00:00 9,4 7,0 7,9 12,7 10 6 16 9 W 1027,0 60 0 0,0
23.01.2018 23:00:00 9,6 7,7 8,0 12,8 9 5 19 11 W 1026,5 42 0 0,0
23.01.2018 22:00:00 9,9 7,7 8,4 12,9 9 5 16 9 W 1025,7 59 0 0,0
23.01.2018 21:00:00 10,6 9,0 8,9 12,9 9 5 15 8 W 1025,3 46 0 0,0
23.01.2018 20:00:00 10,8 9,2 8,8 12,9 8 4 15 8 W 1025,1 46 0 0,0
23.01.2018 19:00:00 10,7 9,9 8,8 12,9 8 4 11 6 W 1024,3 18 0 0,0
23.01.2018 18:00:00 11,7 10,3 10,0 12,8 6 4 10 5 WNW 1023,3 18 0 0,0
23.01.2018 17:00:00 13,9 10,9 11,2 12,7 2 1 8 4 O 1022,4 56 43 0,0
23.01.2018 16:00:00 15,1 11,3 14,8 12,5 3 2 13 7 O 1021,6 19 60 0,0
23.01.2018 15:00:00 15,3 10,9 16,4 12,3 9 5 13 7 O 1021,0 57 60 0,0
23.01.2018 14:00:00 15,7 10,7 19,3 12,1 8 5 14 8 ZO 1020,4 58 60 0,0
23.01.2018 13:00:00 15,6 10,6 20,4 11,9 9 5 16 8 ZZO 1020,4 20 60 0,0
23.01.2018 12:00:00 15,3 9,2 19,3 11,8 9 5 15 8 ZZO 1020,2 55 60 0,0
23.01.2018 11:00:00 15,5 8,2 18,1 11,8 3 2 9 5 O 1020,2 49 60 0,0
23.01.2018 10:00:00 15,3 8,3 11,4 11,8 0 0 12 6 N 1019,5 56 60 0,0
23.01.2018 09:00:00 10,9 5,6 7,9 11,9 10 5 18 10 W 1019,1 59 60 0,0
23.01.2018 08:00:00 9,1 5,1 7,0 12,0 10 5 17 9 W 1018,2 60 4 0,0
23.01.2018 07:00:00 8,9 5,6 7,0 12,2 10 6 16 9 W 1017,9 60 0 -
23.01.2018 06:00:00 8,9 5,6 6,7 12,2 10 6 15 8 W 1016,9 60 0 0,0
23.01.2018 05:00:00 8,6 5,9 5,7 12,3 9 5 13 7 W 1016,6 60 0 0,0
23.01.2018 04:00:00 9,5 6,2 6,2 12,4 9 5 14 8 W 1015,2 60 0 0,0
23.01.2018 03:00:00 9,8 7,0 7,2 12,5 7 4 15 8 W 1015,2 60 0 0,0
23.01.2018 02:00:00 8,5 7,9 6,5 12,5 12 7 17 9 N 1014,8 28 0 0,0
23.01.2018 01:00:00 9,7 8,1 7,0 12,6 4 2 11 6 W 1013,9 46 0 0,0
23.01.2018 00:00:00 11,3 6,8 8,2 12,7 6 3 27 15 ZZW 1014,2 60 0 0,0
22.01.2018 23:00:00 11,0 7,1 9,9 12,8 13 7 36 19 N 1013,1 60 0 0,0
22.01.2018 22:00:00 11,4 9,5 10,4 12,8 9 5 23 13 N 1013,7 51 0 0,0
22.01.2018 21:00:00 11,2 10,3 7,3 12,8 12 6 22 12 NNW 1012,9 32 0 0,0
22.01.2018 20:00:00 9,9 9,0 7,4 12,9 6 3 15 8 WNW 1012,2 23 0 0,0
22.01.2018 19:00:00 10,2 8,6 7,8 12,9 5 3 9 5 N 1012,9 33 0 0,0
22.01.2018 18:00:00 11,7 9,4 9,6 12,8 6 3 9 5 W 1013,6 34 0 0,0
22.01.2018 17:00:00 13,4 9,8 11,7 12,7 5 3 11 6 ZZW 1014,2 60 37 0,0
22.01.2018 16:00:00 14,6 9,8 14,9 12,6 8 4 14 7 ZZO 1014,6 53 39 0,0
22.01.2018 15:00:00 14,7 10,1 16,4 12,5 9 5 13 7 ZZO 1014,1 49 31 0,0
22.01.2018 14:00:00 14,7 10,1 15,5 12,3 2 1 11 6 OZO 1014,4 60 25 0,0
22.01.2018 13:00:00 14,3 9,5 15,4 12,2 6 4 16 9 O 1014,7 57 15 0,0
22.01.2018 12:00:00 15,4 9,5 15,7 12,2 11 6 17 9 NO 1015,2 20 57 0,0
22.01.2018 11:00:00 14,8 8,5 14,3 12,2 9 5 14 8 N 1015,3 35 51 0,0
22.01.2018 10:00:00 13,7 8,3 13,3 12,2 6 4 11 6 NNO 1014,4 59 43 0,0
22.01.2018 09:00:00 11,8 5,9 8,6 12,3 9 5 18 10 W 1013,8 60 41 0,0
22.01.2018 08:00:00 9,7 5,1 7,9 12,4 11 6 16 9 W 1013,6 60 2 0,0
22.01.2018 07:00:00 9,6 4,8 8,1 12,5 10 5 18 10 W 1013,3 60 0 0,0
22.01.2018 06:00:00 10,0 4,8 8,3 12,6 10 6 16 8 WNW 1013,1 60 0 0,0
22.01.2018 05:00:00 9,9 4,9 7,5 12,7 8 4 18 10 W 1012,8 60 0 0,0
22.01.2018 04:00:00 10,4 5,0 6,0 12,7 10 5 16 8 W 1012,8 60 0 0,0
22.01.2018 03:00:00 8,9 4,7 6,1 12,8 4 2 16 9 WNW 1013,2 60 0 0,0
22.01.2018 02:00:00 10,7 5,0 8,9 12,9 11 6 17 9 W 1013,1 60 0 0,0
22.01.2018 01:00:00 11,1 5,2 9,1 13,1 12 6 18 10 W 1012,7 60 0 0,0
22.01.2018 00:00:00 11,3 5,2 8,7 13,2 10 5 18 10 W 1012,9 60 0 0,0
21.01.2018 23:00:00 10,7 5,4 8,5 13,2 9 5 15 8 W 1012,4 60 0 0,0
21.01.2018 22:00:00 12,0 5,4 8,4 13,3 2 1 17 9 WNW 1012,3 60 0 0,0
21.01.2018 21:00:00 12,0 5,6 10,4 13,3 9 5 22 12 NW 1011,7 60 0 0,0
21.01.2018 20:00:00 13,0 6,1 11,3 13,4 11 6 24 13 W 1010,7 60 0 0,0
21.01.2018 19:00:00 13,1 6,7 11,5 13,4 10 5 17 9 WNW 1009,9 60 0 0,0
21.01.2018 18:00:00 14,2 7,3 12,2 13,3 9 5 18 10 W 1009,3 60 0 0,0
21.01.2018 17:00:00 16,2 7,1 12,7 13,2 3 2 8 5 ZZW 1008,8 60 41 0,0
21.01.2018 16:00:00 17,8 8,1 17,0 13,0 6 3 15 8 Z 1008,4 56 60 0,0
21.01.2018 15:00:00 17,3 9,2 18,8 12,8 14 7 20 11 ZZO 1007,6 60 60 0,0
21.01.2018 14:00:00 18,1 8,4 20,8 12,6 11 6 17 9 OZO 1006,9 56 60 0,0
21.01.2018 13:00:00 18,0 10,1 21,0 12,4 5 3 15 8 OZO 1006,9 9 60 0,0
21.01.2018 12:00:00 18,0 10,6 18,9 12,3 13 7 24 13 O 1006,8 45 60 0,0
21.01.2018 11:00:00 17,3 10,7 18,8 12,2 19 11 27 14 NNO 1006,2 20 60 0,0
21.01.2018 10:00:00 19,2 4,9 17,8 12,1 11 6 58 32 NW 1004,8 60 60 0,0
21.01.2018 09:00:00 18,0 4,5 16,9 12,1 34 18 86 47 W 1003,7 11 58 0,0
21.01.2018 08:00:00 17,9 4,8 16,8 12,0 40 22 95 51 W 1001,8 20 7 0,0
21.01.2018 07:00:00 19,0 4,3 17,5 12,0 41 22 97 52 W 1000,6 60 0 0,0
21.01.2018 06:00:00 19,0 4,3 16,7 12,0 32 18 77 41 NW 1000,1 60 0 0,0
21.01.2018 05:00:00 19,5 4,4 16,3 12,0 19 10 82 44 NW 1000,8 60 0 0,0
21.01.2018 04:00:00 18,9 4,3 15,0 12,0 9 5 55 30 NNO 1001,5 60 0 0,0
21.01.2018 03:00:00 17,9 5,8 15,4 12,0 15 8 46 25 N 1002,8 60 0 0,0
21.01.2018 02:00:00 17,5 6,1 15,7 12,1 14 7 36 19 NW 1004,0 60 0 0,0
21.01.2018 01:00:00 16,9 5,2 13,0 12,1 14 7 34 19 N 1004,9 60 0 0,0
21.01.2018 00:00:00 15,9 4,6 11,0 12,2 10 5 41 22 NW 1006,2 60 0 0,0
20.01.2018 23:00:00 14,0 4,8 10,6 12,2 8 5 34 18 ZO 1007,6 60 0 0,0
20.01.2018 22:00:00 13,5 3,6 9,7 12,3 9 5 31 17 Z 1008,9 60 0 0,0
20.01.2018 21:00:00 12,8 3,2 10,5 12,3 10 6 45 25 ONO 1010,1 60 0 0,0
20.01.2018 20:00:00 13,8 1,7 12,1 12,3 21 11 56 30 WNW 1011,0 60 0 0,0
20.01.2018 19:00:00 13,4 0,7 12,6 12,2 29 16 64 35 W 1011,7 60 0 0,0
20.01.2018 18:00:00 13,6 -0,5 12,4 12,2 29 16 64 35 W 1011,1 60 0 0,0
20.01.2018 17:00:00 14,1 -4,2 13,1 12,0 27 14 56 30 W 1011,0 56 21 0,0
20.01.2018 16:00:00 15,3 -3,1 15,1 11,9 19 10 46 25 W 1011,4 60 60 0,0
20.01.2018 15:00:00 15,2 4,8 16,4 11,7 4 2 13 7 OZO 1011,8 57 60 0,0
20.01.2018 14:00:00 15,0 4,7 17,9 11,6 10 5 18 10 OZO 1012,4 60 60 0,0
20.01.2018 13:00:00 15,1 4,7 18,5 11,4 11 6 21 12 OZO 1013,3 60 60 0,0
20.01.2018 12:00:00 15,3 4,0 17,6 11,4 15 8 21 12 ZO 1014,0 19 60 0,0
20.01.2018 11:00:00 15,0 3,5 14,4 11,3 15 8 21 11 ZZO 1014,6 60 60 0,0
20.01.2018 10:00:00 13,9 4,7 12,0 11,4 5 3 10 5 ONO 1014,5 58 60 0,0
20.01.2018 09:00:00 10,6 0,9 5,1 11,5 6 4 10 5 WZW 1014,1 56 60 0,0
20.01.2018 08:00:00 8,8 2,4 4,1 11,5 5 3 15 8 ZZO 1013,8 60 1 0,0
20.01.2018 07:00:00 9,0 -1,2 5,3 11,6 5 3 10 6 NW 1012,9 60 0 0,0
20.01.2018 06:00:00 11,1 -1,3 6,7 11,7 4 2 40 21 ZZO 1012,1 60 0 0,0
20.01.2018 05:00:00 13,4 -2,6 11,6 11,7 22 12 49 27 W 1011,7 60 0 0,0
20.01.2018 04:00:00 13,9 -3,9 8,4 11,8 16 9 30 16 W 1011,7 60 0 0,0
20.01.2018 03:00:00 13,1 -4,1 9,1 11,8 4 2 29 15 WNW 1012,1 60 0 0,0
20.01.2018 02:00:00 13,9 -3,4 7,3 11,9 9 5 20 11 W 1012,1 60 0 0,0
20.01.2018 01:00:00 13,3 -1,9 8,9 11,9 5 3 29 16 ZW 1011,7 60 0 0,0
20.01.2018 00:00:00 14,0 -1,6 9,7 11,9 8 4 29 16 ZZW 1011,7 60 0 0,0
19.01.2018 23:00:00 13,8 0,8 10,9 12,0 10 5 24 13 ZZW 1011,8 60 0 0,0
19.01.2018 22:00:00 14,7 0,1 12,8 12,0 16 9 47 25 WZW 1011,8 60 0 0,0
19.01.2018 21:00:00 14,4 2,0 13,0 12,0 24 13 60 32 ZZW 1011,2 60 0 0,0
19.01.2018 20:00:00 14,7 0,1 12,6 12,0 19 10 54 29 NW 1011,4 60 0 0,0
19.01.2018 19:00:00 15,2 1,3 14,1 11,9 29 16 60 32 W 1010,6 60 0 0,0
19.01.2018 18:00:00 15,2 1,7 14,1 11,9 29 15 69 37 W 1010,3 60 0 0,0
19.01.2018 17:00:00 15,6 1,3 14,7 11,8 33 18 66 36 W 1009,9 39 31 0,0
19.01.2018 16:00:00 16,7 0,7 16,1 11,8 32 18 61 33 W 1009,5 56 60 0,0
19.01.2018 15:00:00 17,2 1,2 16,3 11,7 31 17 56 30 W 1009,9 60 43 0,0
19.01.2018 14:00:00 17,1 2,7 16,0 11,7 23 12 56 31 W 1010,2 55 0 0,0
19.01.2018 13:00:00 16,9 2,8 16,0 11,7 31 17 64 35 W 1010,8 28 0 0,0
19.01.2018 12:00:00 16,7 3,0 15,8 11,7 32 18 72 39 W 1010,7 33 0 0,0
19.01.2018 11:00:00 16,7 2,7 11,8 11,7 34 18 58 31 W 1010,7 10 0 0,0
19.01.2018 10:00:00 12,3 5,5 10,4 11,8 13 7 42 23 N 1011,3 10 0 0,0
19.01.2018 09:00:00 10,6 6,0 6,9 11,8 13 7 26 14 N 1011,2 10 0 0,0
19.01.2018 08:00:00 8,9 5,3 6,9 11,9 5 3 22 12 - 1011,5 10 0 0,0
19.01.2018 07:00:00 10,0 5,4 8,8 11,9 13 7 27 15 - 1011,7 10 0 0,0
19.01.2018 06:00:00 11,6 6,3 9,7 11,9 5 3 35 19 - 1011,8 10 0 0,0
19.01.2018 05:00:00 15,7 3,1 13,8 11,9 8 4 55 30 - 1011,5 10 0 0,0
19.01.2018 04:00:00 15,7 2,5 14,0 11,9 22 12 57 31 WNW 1011,2 10 0 0,0
19.01.2018 03:00:00 15,6 2,0 14,3 11,9 34 18 69 38 W 1012,0 10 0 0,0
19.01.2018 02:00:00 15,5 1,9 14,4 12,0 31 17 62 34 W 1012,3 10 0 0,0
19.01.2018 01:00:00 15,8 1,9 14,6 12,0 31 17 61 33 WNW 1013,1 10 0 0,0
19.01.2018 00:00:00 16,1 2,5 14,4 12,0 31 17 64 35 W 1013,5 10 0 0,0
18.01.2018 23:00:00 16,1 2,5 14,1 12,0 34 18 59 32 W 1014,4 10 0 0,0
18.01.2018 22:00:00 15,4 2,9 14,0 12,0 26 14 62 34 W 1015,1 10 0 0,0
18.01.2018 21:00:00 15,5 3,3 13,9 12,0 28 15 53 29 W 1015,9 10 0 0,0
18.01.2018 20:00:00 15,3 3,1 14,0 12,1 22 12 54 29 W 1016,1 10 0 0,0
18.01.2018 19:00:00 15,4 3,2 13,7 12,0 28 15 69 37 W 1015,9 10 0 0,0
18.01.2018 18:00:00 14,9 3,4 13,6 12,0 28 15 68 37 W 1016,1 10 0 0,0
18.01.2018 17:00:00 14,5 3,0 13,6 11,9 42 23 82 45 WZW 1016,2 41 12 0,0
18.01.2018 16:00:00 14,5 3,0 13,8 11,7 26 14 79 43 W 1016,5 24 32 0,0
18.01.2018 15:00:00 15,4 2,2 16,9 11,6 22 12 52 28 W 1016,7 10 60 0,0
18.01.2018 14:00:00 15,8 1,9 15,4 11,4 19 11 43 23 WZW 1016,6 60 60 0,0
18.01.2018 13:00:00 13,8 3,3 16,1 11,3 16 9 25 13 NO 1018,2 60 60 0,0
18.01.2018 12:00:00 14,1 2,6 15,2 11,2 10 6 21 11 NNO 1018,8 20 60 0,0
18.01.2018 11:00:00 13,7 1,3 13,9 11,2 11 6 24 13 NNO 1019,3 10 60 0,0
18.01.2018 10:00:00 12,4 -0,5 9,3 11,3 11 6 22 12 N 1019,5 60 60 0,0
18.01.2018 09:00:00 8,9 0,6 1,8 11,5 5 3 16 8 - 1018,7 10 60 0,0

tt = temperatuur
td = dauwpunt
tt 5cm = temperatuur 5cm
tt -20cm = temperatuur -20cm
ff = windsnelheid
fx = windstoten
dd = windrichting
ppp = luchtdruk
vv = zicht
sd = Zonneschijnduur
rr = neerslag

Weerstations in de omgeving